Year,Month,Day,Hour,Minute,Value (Times are PST for temperature in C)
2014,11,15,00,00,-3.10
2014,11,15,00,01,-3.10
2014,11,15,00,02,-3.10
2014,11,15,00,03,-3.10
2014,11,15,00,04,-3.10
2014,11,15,00,05,-3.10
2014,11,15,00,06,-3.10
2014,11,15,00,07,-3.10
2014,11,15,00,08,-3.10
2014,11,15,00,09,-3.10
2014,11,15,00,10,-3.10
2014,11,15,00,11,-3.10
2014,11,15,00,12,-3.10
2014,11,15,00,13,-3.10
2014,11,15,00,14,-3.10
2014,11,15,00,15,-3.10
2014,11,15,00,16,-3.10
2014,11,15,00,17,-3.10
2014,11,15,00,18,-3.10
2014,11,15,00,19,-3.10
2014,11,15,00,20,-3.10
2014,11,15,00,21,-3.20
2014,11,15,00,22,-3.20
2014,11,15,00,23,-3.20
2014,11,15,00,24,-3.20
2014,11,15,00,25,-3.20
2014,11,15,00,26,-3.20
2014,11,15,00,27,-3.20
2014,11,15,00,28,-3.20
2014,11,15,00,29,-3.30
2014,11,15,00,30,-3.30
2014,11,15,00,31,-3.30
2014,11,15,00,32,-3.30
2014,11,15,00,33,-3.30
2014,11,15,00,34,-3.40
2014,11,15,00,35,-3.40
2014,11,15,00,36,-3.40
2014,11,15,00,37,-3.40
2014,11,15,00,38,-3.40
2014,11,15,00,39,-3.40
2014,11,15,00,40,-3.40
2014,11,15,00,41,-3.40
2014,11,15,00,42,-3.40
2014,11,15,00,43,-3.40
2014,11,15,00,44,-3.40
2014,11,15,00,45,-3.40
2014,11,15,00,46,-3.40
2014,11,15,00,47,-3.40
2014,11,15,00,48,-3.40
2014,11,15,00,49,-3.40
2014,11,15,00,50,-3.40
2014,11,15,00,51,-3.40
2014,11,15,00,52,-3.40
2014,11,15,00,53,-3.40
2014,11,15,00,54,-3.40
2014,11,15,00,55,-3.40
2014,11,15,00,56,-3.40
2014,11,15,00,57,-3.40
2014,11,15,00,58,-3.40
2014,11,15,00,59,-3.40
2014,11,15,01,00,-3.40
2014,11,15,01,01,-3.40
2014,11,15,01,02,-3.40
2014,11,15,01,03,-3.40
2014,11,15,01,04,-3.40
2014,11,15,01,05,-3.40
2014,11,15,01,06,-3.40
2014,11,15,01,07,-3.40
2014,11,15,01,08,-3.40
2014,11,15,01,09,-3.40
2014,11,15,01,10,-3.40
2014,11,15,01,11,-3.40
2014,11,15,01,12,-3.40
2014,11,15,01,13,-3.40
2014,11,15,01,14,-3.40
2014,11,15,01,15,-3.40
2014,11,15,01,16,-3.40
2014,11,15,01,17,-3.50
2014,11,15,01,18,-3.50
2014,11,15,01,19,-3.50
2014,11,15,01,20,-3.50
2014,11,15,01,21,-3.60
2014,11,15,01,22,-3.60
2014,11,15,01,23,-3.50
2014,11,15,01,24,-3.50
2014,11,15,01,25,-3.50
2014,11,15,01,26,-3.50
2014,11,15,01,27,-3.50
2014,11,15,01,28,-3.50
2014,11,15,01,29,-3.50
2014,11,15,01,30,-3.50
2014,11,15,01,31,-3.50
2014,11,15,01,32,-3.50
2014,11,15,01,33,-3.50
2014,11,15,01,34,-3.50
2014,11,15,01,35,-3.50
2014,11,15,01,36,-3.50
2014,11,15,01,37,-3.50
2014,11,15,01,38,-3.50
2014,11,15,01,39,-3.50
2014,11,15,01,40,-3.40
2014,11,15,01,41,-3.40
2014,11,15,01,42,-3.40
2014,11,15,01,43,-3.40
2014,11,15,01,44,-3.40
2014,11,15,01,45,-3.40
2014,11,15,01,46,-3.40
2014,11,15,01,47,-3.40
2014,11,15,01,48,-3.50
2014,11,15,01,49,-3.50
2014,11,15,01,50,-3.50
2014,11,15,01,51,-3.50
2014,11,15,01,52,-3.50
2014,11,15,01,53,-3.50
2014,11,15,01,54,-3.50
2014,11,15,01,55,-3.50
2014,11,15,01,56,-3.60
2014,11,15,01,57,-3.60
2014,11,15,01,58,-3.60
2014,11,15,01,59,-3.60
2014,11,15,02,00,-3.60
2014,11,15,02,01,-3.60
2014,11,15,02,02,-3.70
2014,11,15,02,03,-3.70
2014,11,15,02,04,-3.70
2014,11,15,02,05,-3.70
2014,11,15,02,06,-3.60
2014,11,15,02,07,-3.60
2014,11,15,02,08,-3.60
2014,11,15,02,09,-3.60
2014,11,15,02,10,-3.60
2014,11,15,02,11,-3.60
2014,11,15,02,12,-3.60
2014,11,15,02,13,-3.60
2014,11,15,02,14,-3.60
2014,11,15,02,15,-3.70
2014,11,15,02,16,-3.70
2014,11,15,02,17,-3.70
2014,11,15,02,18,-3.70
2014,11,15,02,19,-3.70
2014,11,15,02,20,-3.70
2014,11,15,02,21,-3.70
2014,11,15,02,22,-3.70
2014,11,15,02,23,-3.70
2014,11,15,02,24,-3.70
2014,11,15,02,25,-3.70
2014,11,15,02,26,-3.70
2014,11,15,02,27,-3.70
2014,11,15,02,28,-3.70
2014,11,15,02,29,-3.70
2014,11,15,02,30,-3.70
2014,11,15,02,31,-3.70
2014,11,15,02,32,-3.80
2014,11,15,02,33,-3.80
2014,11,15,02,34,-3.80
2014,11,15,02,35,-3.80
2014,11,15,02,36,-3.80
2014,11,15,02,37,-3.70
2014,11,15,02,38,-3.70
2014,11,15,02,39,-3.70
2014,11,15,02,40,-3.70
2014,11,15,02,41,-3.70
2014,11,15,02,42,-3.80
2014,11,15,02,43,-3.80
2014,11,15,02,44,-3.80
2014,11,15,02,45,-3.80
2014,11,15,02,46,-3.80
2014,11,15,02,47,-3.80
2014,11,15,02,48,-3.80
2014,11,15,02,49,-3.70
2014,11,15,02,50,-3.70
2014,11,15,02,51,-3.70
2014,11,15,02,52,-3.70
2014,11,15,02,53,-3.70
2014,11,15,02,54,-3.70
2014,11,15,02,55,-3.70
2014,11,15,02,56,-3.70
2014,11,15,02,57,-3.70
2014,11,15,02,58,-3.70
2014,11,15,02,59,-3.70
2014,11,15,03,00,-3.70
2014,11,15,03,01,-3.70
2014,11,15,03,02,-3.70
2014,11,15,03,03,-3.70
2014,11,15,03,04,-3.70
2014,11,15,03,05,-3.70
2014,11,15,03,06,-3.70
2014,11,15,03,07,-3.70
2014,11,15,03,08,-3.70
2014,11,15,03,09,-3.70
2014,11,15,03,10,-3.70
2014,11,15,03,11,-3.70
2014,11,15,03,12,-3.70
2014,11,15,03,13,-3.70
2014,11,15,03,14,-3.60
2014,11,15,03,15,-3.60
2014,11,15,03,16,-3.60
2014,11,15,03,17,-3.60
2014,11,15,03,18,-3.60
2014,11,15,03,19,-3.60
2014,11,15,03,20,-3.60
2014,11,15,03,21,-3.60
2014,11,15,03,22,-3.60
2014,11,15,03,23,-3.60
2014,11,15,03,24,-3.60
2014,11,15,03,25,-3.70
2014,11,15,03,26,-3.70
2014,11,15,03,27,-3.70
2014,11,15,03,28,-3.70
2014,11,15,03,29,-3.70
2014,11,15,03,30,-3.70
2014,11,15,03,31,-3.70
2014,11,15,03,32,-3.70
2014,11,15,03,33,-3.70
2014,11,15,03,34,-3.70
2014,11,15,03,35,-3.80
2014,11,15,03,36,-3.80
2014,11,15,03,37,-3.80
2014,11,15,03,38,-3.80
2014,11,15,03,39,-3.80
2014,11,15,03,40,-3.80
2014,11,15,03,41,-3.80
2014,11,15,03,42,-3.80
2014,11,15,03,43,-3.80
2014,11,15,03,44,-3.80
2014,11,15,03,49,-3.90
2014,11,15,03,50,-3.90
2014,11,15,03,51,-3.90
2014,11,15,03,52,-3.90
2014,11,15,03,53,-3.90
2014,11,15,03,54,-3.90
2014,11,15,03,55,-3.90
2014,11,15,03,56,-3.90
2014,11,15,03,57,-3.90
2014,11,15,03,58,-3.80
2014,11,15,03,59,-3.80
2014,11,15,04,00,-3.80
2014,11,15,04,01,-3.90
2014,11,15,04,02,-3.80
2014,11,15,04,03,-3.90
2014,11,15,04,04,-3.90
2014,11,15,04,05,-3.90
2014,11,15,04,06,-3.90
2014,11,15,04,07,-3.90
2014,11,15,04,08,-3.90
2014,11,15,04,09,-3.90
2014,11,15,04,10,-3.90
2014,11,15,04,11,-3.90
2014,11,15,04,12,-3.90
2014,11,15,04,13,-3.90
2014,11,15,04,14,-3.90
2014,11,15,04,15,-3.90
2014,11,15,04,16,-3.90
2014,11,15,04,17,-3.90
2014,11,15,04,18,-3.90
2014,11,15,04,19,-3.90
2014,11,15,04,20,-3.90
2014,11,15,04,21,-3.90
2014,11,15,04,22,-4.00
2014,11,15,04,23,-4.00
2014,11,15,04,24,-4.00
2014,11,15,04,25,-4.00
2014,11,15,04,26,-4.10
2014,11,15,04,27,-4.00
2014,11,15,04,28,-4.00
2014,11,15,04,29,-4.10
2014,11,15,04,30,-4.10
2014,11,15,04,31,-4.10
2014,11,15,04,32,-4.10
2014,11,15,04,33,-4.10
2014,11,15,04,34,-4.10
2014,11,15,04,35,-4.10
2014,11,15,04,36,-4.10
2014,11,15,04,37,-4.10
2014,11,15,04,38,-4.20
2014,11,15,04,39,-4.20
2014,11,15,04,40,-4.20
2014,11,15,04,41,-4.20
2014,11,15,04,42,-4.10
2014,11,15,04,43,-4.10
2014,11,15,04,44,-4.10
2014,11,15,04,45,-4.10
2014,11,15,04,46,-4.10
2014,11,15,04,47,-4.10
2014,11,15,04,48,-4.10
2014,11,15,04,49,-4.00
2014,11,15,04,50,-4.00
2014,11,15,04,51,-4.00
2014,11,15,04,52,-4.00
2014,11,15,04,53,-4.00
2014,11,15,04,54,-4.00
2014,11,15,04,55,-4.00
2014,11,15,04,56,-3.90
2014,11,15,04,57,-3.90
2014,11,15,04,58,-3.90
2014,11,15,04,59,-3.90
2014,11,15,05,00,-3.90
2014,11,15,05,01,-3.90
2014,11,15,05,02,-3.90
2014,11,15,05,03,-3.90
2014,11,15,05,04,-3.90
2014,11,15,05,05,-3.90
2014,11,15,05,06,-3.90
2014,11,15,05,07,-3.90
2014,11,15,05,08,-4.00
2014,11,15,05,09,-4.00
2014,11,15,05,10,-4.00
2014,11,15,05,11,-4.00
2014,11,15,05,12,-4.10
2014,11,15,05,13,-4.10
2014,11,15,05,14,-4.10
2014,11,15,05,15,-4.10
2014,11,15,05,16,-4.20
2014,11,15,05,17,-4.20
2014,11,15,05,18,-4.20
2014,11,15,05,19,-4.20
2014,11,15,05,20,-4.20
2014,11,15,05,21,-4.20
2014,11,15,05,22,-4.20
2014,11,15,05,23,-4.20
2014,11,15,05,24,-4.20
2014,11,15,05,25,-4.20
2014,11,15,05,26,-4.20
2014,11,15,05,27,-4.20
2014,11,15,05,28,-4.20
2014,11,15,05,29,-4.20
2014,11,15,05,30,-4.20
2014,11,15,05,31,-4.20
2014,11,15,05,32,-4.20
2014,11,15,05,33,-4.20
2014,11,15,05,34,-4.20
2014,11,15,05,35,-4.20
2014,11,15,05,36,-4.20
2014,11,15,05,37,-4.20
2014,11,15,05,38,-4.20
2014,11,15,05,39,-4.10
2014,11,15,05,40,-4.10
2014,11,15,05,41,-4.20
2014,11,15,05,42,-4.20
2014,11,15,05,43,-4.20
2014,11,15,05,44,-4.20
2014,11,15,05,45,-4.20
2014,11,15,05,46,-4.20
2014,11,15,05,47,-4.10
2014,11,15,05,48,-4.10
2014,11,15,05,49,-4.10
2014,11,15,05,50,-4.10
2014,11,15,05,51,-4.20
2014,11,15,05,52,-4.20
2014,11,15,05,53,-4.20
2014,11,15,05,54,-4.20
2014,11,15,05,55,-4.20
2014,11,15,05,56,-4.20
2014,11,15,05,57,-4.20
2014,11,15,05,58,-4.20
2014,11,15,05,59,-4.20
2014,11,15,06,00,-4.20
2014,11,15,06,01,-4.20
2014,11,15,06,02,-4.20
2014,11,15,06,03,-4.20
2014,11,15,06,04,-4.20
2014,11,15,06,05,-4.20
2014,11,15,06,06,-4.20
2014,11,15,06,07,-4.20
2014,11,15,06,08,-4.20
2014,11,15,06,09,-4.20
2014,11,15,06,10,-4.20
2014,11,15,06,11,-4.20
2014,11,15,06,12,-4.10
2014,11,15,06,13,-4.10
2014,11,15,06,14,-4.10
2014,11,15,06,15,-4.10
2014,11,15,06,16,-4.10
2014,11,15,06,17,-4.10
2014,11,15,06,18,-4.20
2014,11,15,06,19,-4.20
2014,11,15,06,20,-4.20
2014,11,15,06,21,-4.20
2014,11,15,06,22,-4.20
2014,11,15,06,23,-4.20
2014,11,15,06,24,-4.20
2014,11,15,06,25,-4.20
2014,11,15,06,26,-4.20
2014,11,15,06,27,-4.20
2014,11,15,06,28,-4.20
2014,11,15,06,29,-4.20
2014,11,15,06,30,-4.20
2014,11,15,06,31,-4.20
2014,11,15,06,32,-4.20
2014,11,15,06,33,-4.20
2014,11,15,06,34,-4.20
2014,11,15,06,35,-4.20
2014,11,15,06,36,-4.10
2014,11,15,06,37,-4.10
2014,11,15,06,38,-4.10
2014,11,15,06,39,-4.10
2014,11,15,06,40,-4.10
2014,11,15,06,41,-4.10
2014,11,15,06,42,-4.10
2014,11,15,06,43,-4.10
2014,11,15,06,44,-4.10
2014,11,15,06,45,-4.10
2014,11,15,06,46,-4.10
2014,11,15,06,47,-4.20
2014,11,15,06,48,-4.20
2014,11,15,06,49,-4.20
2014,11,15,06,50,-4.20
2014,11,15,06,51,-4.20
2014,11,15,06,52,-4.20
2014,11,15,06,53,-4.20
2014,11,15,06,54,-4.20
2014,11,15,06,55,-4.20
2014,11,15,06,56,-4.20
2014,11,15,06,57,-4.20
2014,11,15,06,58,-4.20
2014,11,15,06,59,-4.20
2014,11,15,07,00,-4.20
2014,11,15,07,01,-4.20
2014,11,15,07,02,-4.20
2014,11,15,07,03,-4.30
2014,11,15,07,04,-4.30
2014,11,15,07,05,-4.30
2014,11,15,07,06,-4.30
2014,11,15,07,07,-4.30
2014,11,15,07,08,-4.30
2014,11,15,07,09,-4.30
2014,11,15,07,10,-4.30
2014,11,15,07,11,-4.30
2014,11,15,07,12,-4.30
2014,11,15,07,13,-4.30
2014,11,15,07,14,-4.30
2014,11,15,07,15,-4.30
2014,11,15,07,16,-4.30
2014,11,15,07,17,-4.30
2014,11,15,07,18,-4.30
2014,11,15,07,19,-4.30
2014,11,15,07,20,-4.30
2014,11,15,07,21,-4.30
2014,11,15,07,22,-4.30
2014,11,15,07,23,-4.30
2014,11,15,07,24,-4.30
2014,11,15,07,25,-4.30
2014,11,15,07,26,-4.30
2014,11,15,07,27,-4.30
2014,11,15,07,28,-4.30
2014,11,15,07,29,-4.30
2014,11,15,07,30,-4.30
2014,11,15,07,31,-4.30
2014,11,15,07,32,-4.30
2014,11,15,07,33,-4.40
2014,11,15,07,34,-4.40
2014,11,15,07,35,-4.40
2014,11,15,07,36,-4.40
2014,11,15,07,37,-4.40
2014,11,15,07,38,-4.40
2014,11,15,07,39,-4.40
2014,11,15,07,40,-4.40
2014,11,15,07,41,-4.40
2014,11,15,07,42,-4.40
2014,11,15,07,43,-4.40
2014,11,15,07,44,-4.40
2014,11,15,07,45,-4.40
2014,11,15,07,46,-4.40
2014,11,15,07,47,-4.40
2014,11,15,07,48,-4.40
2014,11,15,07,49,-4.40
2014,11,15,07,50,-4.30
2014,11,15,07,51,-4.30
2014,11,15,07,52,-4.30
2014,11,15,07,53,-4.30
2014,11,15,07,54,-4.30
2014,11,15,07,55,-4.20
2014,11,15,07,56,-4.20
2014,11,15,07,57,-4.20
2014,11,15,07,58,-4.20
2014,11,15,07,59,-4.20
2014,11,15,08,00,-4.20
2014,11,15,08,01,-4.20
2014,11,15,08,02,-4.20
2014,11,15,08,03,-4.10
2014,11,15,08,04,-4.10
2014,11,15,08,05,-4.00
2014,11,15,08,06,-4.00
2014,11,15,08,07,-4.00
2014,11,15,08,08,-4.00
2014,11,15,08,09,-4.00
2014,11,15,08,10,-4.00
2014,11,15,08,11,-4.00
2014,11,15,08,12,-4.00
2014,11,15,08,13,-4.00
2014,11,15,08,14,-4.00
2014,11,15,08,15,-4.00
2014,11,15,08,16,-4.00
2014,11,15,08,17,-4.00
2014,11,15,08,18,-3.90
2014,11,15,08,19,-3.90
2014,11,15,08,20,-3.90
2014,11,15,08,21,-3.90
2014,11,15,08,22,-3.90
2014,11,15,08,23,-3.90
2014,11,15,08,24,-3.80
2014,11,15,08,25,-3.80
2014,11,15,08,26,-3.80
2014,11,15,08,27,-3.80
2014,11,15,08,28,-3.80
2014,11,15,08,29,-3.80
2014,11,15,08,30,-3.70
2014,11,15,08,31,-3.70
2014,11,15,08,32,-3.70
2014,11,15,08,33,-3.60
2014,11,15,08,34,-3.60
2014,11,15,08,35,-3.50
2014,11,15,08,36,-3.50
2014,11,15,08,37,-3.40
2014,11,15,08,38,-3.40
2014,11,15,08,39,-3.30
2014,11,15,08,40,-3.30
2014,11,15,08,41,-3.20
2014,11,15,08,42,-3.20
2014,11,15,08,43,-3.10
2014,11,15,08,44,-3.10
2014,11,15,08,45,-3.00
2014,11,15,08,46,-2.90
2014,11,15,08,47,-2.90
2014,11,15,08,48,-2.80
2014,11,15,08,49,-2.80
2014,11,15,08,50,-2.70
2014,11,15,08,51,-2.70
2014,11,15,08,52,-2.70
2014,11,15,08,53,-2.60
2014,11,15,08,54,-2.60
2014,11,15,08,55,-2.60
2014,11,15,08,56,-2.60
2014,11,15,08,57,-2.60
2014,11,15,08,58,-2.50
2014,11,15,08,59,-2.50
2014,11,15,09,00,-2.40
2014,11,15,09,01,-2.40
2014,11,15,09,02,-2.40
2014,11,15,09,03,-2.30
2014,11,15,09,04,-2.30
2014,11,15,09,05,-2.20
2014,11,15,09,06,-2.20
2014,11,15,09,07,-2.10
2014,11,15,09,08,-2.00
2014,11,15,09,09,-1.90
2014,11,15,09,10,-1.90
2014,11,15,09,11,-1.80
2014,11,15,09,12,-1.70
2014,11,15,09,13,-1.70
2014,11,15,09,14,-1.70
2014,11,15,09,15,-1.70
2014,11,15,09,16,-1.60
2014,11,15,09,17,-1.60
2014,11,15,09,18,-1.60
2014,11,15,09,19,-1.50
2014,11,15,09,20,-1.50
2014,11,15,09,21,-1.40
2014,11,15,09,22,-1.40
2014,11,15,09,23,-1.30
2014,11,15,09,24,-1.30
2014,11,15,09,25,-1.30
2014,11,15,09,26,-1.30
2014,11,15,09,27,-1.30
2014,11,15,09,28,-1.20
2014,11,15,09,29,-1.20
2014,11,15,09,30,-1.20
2014,11,15,09,31,-1.20
2014,11,15,09,32,-1.20
2014,11,15,09,33,-1.10
2014,11,15,09,34,-1.10
2014,11,15,09,35,-1.00
2014,11,15,09,36,-1.00
2014,11,15,09,37,-0.90
2014,11,15,09,38,-0.90
2014,11,15,09,39,-0.80
2014,11,15,09,40,-0.80
2014,11,15,09,41,-0.70
2014,11,15,09,42,-0.70
2014,11,15,09,43,-0.60
2014,11,15,09,44,-0.60
2014,11,15,09,45,-0.50
2014,11,15,09,46,-0.50
2014,11,15,09,47,-0.40
2014,11,15,09,48,-0.30
2014,11,15,09,49,-0.30
2014,11,15,09,50,-0.30
2014,11,15,09,51,-0.20
2014,11,15,09,52,-0.20
2014,11,15,09,53,-0.10
2014,11,15,09,54,-0.10
2014,11,15,09,55,0.00
2014,11,15,09,56,0.00
2014,11,15,09,57,0.10
2014,11,15,09,58,0.20
2014,11,15,09,59,0.30
2014,11,15,10,00,0.40
2014,11,15,10,01,0.50
2014,11,15,10,02,0.70
2014,11,15,10,03,0.80
2014,11,15,10,04,0.90
2014,11,15,10,05,1.00
2014,11,15,10,06,1.00
2014,11,15,10,07,1.10
2014,11,15,10,08,1.20
2014,11,15,10,09,1.20
2014,11,15,10,10,1.30
2014,11,15,10,11,1.30
2014,11,15,10,12,1.30
2014,11,15,10,13,1.40
2014,11,15,10,14,1.50
2014,11,15,10,15,1.60
2014,11,15,10,16,1.70
2014,11,15,10,17,1.80
2014,11,15,10,18,1.80
2014,11,15,10,19,1.90
2014,11,15,10,20,2.00
2014,11,15,10,21,2.00
2014,11,15,10,22,2.10
2014,11,15,10,23,2.20
2014,11,15,10,24,2.20
2014,11,15,10,25,2.30
2014,11,15,10,26,2.30
2014,11,15,10,27,2.40
2014,11,15,10,28,2.40
2014,11,15,10,29,2.50
2014,11,15,10,30,2.60
2014,11,15,10,31,2.70
2014,11,15,10,32,2.80
2014,11,15,10,33,2.80
2014,11,15,10,34,3.00
2014,11,15,10,35,3.10
2014,11,15,10,36,3.20
2014,11,15,10,37,3.20
2014,11,15,10,38,3.30
2014,11,15,10,39,3.30
2014,11,15,10,40,3.40
2014,11,15,10,41,3.50
2014,11,15,10,42,3.50
2014,11,15,10,43,3.60
2014,11,15,10,44,3.70
2014,11,15,10,45,3.80
2014,11,15,10,46,3.90
2014,11,15,10,47,4.00
2014,11,15,10,48,4.00
2014,11,15,10,49,4.10
2014,11,15,10,50,4.10
2014,11,15,10,51,4.20
2014,11,15,10,52,4.20
2014,11,15,10,53,4.20
2014,11,15,10,54,4.20
2014,11,15,10,55,4.30
2014,11,15,10,56,4.40
2014,11,15,10,57,4.50
2014,11,15,10,58,4.60
2014,11,15,10,59,4.70
2014,11,15,11,00,4.70
2014,11,15,11,01,4.80
2014,11,15,11,02,4.80
2014,11,15,11,03,4.80
2014,11,15,11,04,4.90
2014,11,15,11,05,4.90
2014,11,15,11,06,5.00
2014,11,15,11,07,5.00
2014,11,15,11,08,5.00
2014,11,15,11,09,5.00
2014,11,15,11,10,5.00
2014,11,15,11,11,5.00
2014,11,15,11,12,5.10
2014,11,15,11,13,5.10
2014,11,15,11,14,5.20
2014,11,15,11,15,5.20
2014,11,15,11,16,5.20
2014,11,15,11,17,5.20
2014,11,15,11,18,5.20
2014,11,15,11,19,5.20
2014,11,15,11,20,5.30
2014,11,15,11,21,5.30
2014,11,15,11,22,5.40
2014,11,15,11,23,5.40
2014,11,15,11,24,5.40
2014,11,15,11,25,5.40
2014,11,15,11,26,5.30
2014,11,15,11,27,5.30
2014,11,15,11,28,5.40
2014,11,15,11,29,5.30
2014,11,15,11,30,5.30
2014,11,15,11,31,5.20
2014,11,15,11,32,5.20
2014,11,15,11,33,5.30
2014,11,15,11,34,5.30
2014,11,15,11,35,5.30
2014,11,15,11,36,5.30
2014,11,15,11,37,5.30
2014,11,15,11,38,5.40
2014,11,15,11,39,5.40
2014,11,15,11,40,5.40
2014,11,15,11,41,5.50
2014,11,15,11,42,5.50
2014,11,15,11,43,5.50
2014,11,15,11,44,5.60
2014,11,15,11,45,5.60
2014,11,15,11,46,5.60
2014,11,15,11,47,5.70
2014,11,15,11,48,5.70
2014,11,15,11,49,5.70
2014,11,15,11,50,5.70
2014,11,15,11,51,5.70
2014,11,15,11,52,5.80
2014,11,15,11,53,5.80
2014,11,15,11,54,5.80
2014,11,15,11,55,5.80
2014,11,15,11,56,5.80
2014,11,15,11,57,5.80
2014,11,15,11,58,5.80
2014,11,15,11,59,5.80
2014,11,15,12,00,5.80
2014,11,15,12,01,5.80
2014,11,15,12,02,5.80
2014,11,15,12,03,5.80
2014,11,15,12,04,5.80
2014,11,15,12,05,5.80
2014,11,15,12,06,5.80
2014,11,15,12,07,5.80
2014,11,15,12,08,5.80
2014,11,15,12,09,5.70
2014,11,15,12,10,5.70
2014,11,15,12,11,5.70
2014,11,15,12,12,5.80
2014,11,15,12,13,5.80
2014,11,15,12,14,5.90
2014,11,15,12,15,5.90
2014,11,15,12,16,5.90
2014,11,15,12,17,5.90
2014,11,15,12,18,5.80
2014,11,15,12,19,5.80
2014,11,15,12,20,5.70
2014,11,15,12,21,5.60
2014,11,15,12,22,5.60
2014,11,15,12,23,5.60
2014,11,15,12,24,5.60
2014,11,15,12,25,5.70
2014,11,15,12,26,5.70
2014,11,15,12,27,5.70
2014,11,15,12,28,5.70
2014,11,15,12,29,5.70
2014,11,15,12,30,5.70
2014,11,15,12,31,5.70
2014,11,15,12,32,5.70
2014,11,15,12,33,5.70
2014,11,15,12,34,5.70
2014,11,15,12,35,5.70
2014,11,15,12,36,5.60
2014,11,15,12,37,5.60
2014,11,15,12,38,5.60
2014,11,15,12,39,5.60
2014,11,15,12,40,5.60
2014,11,15,12,41,5.70
2014,11,15,12,42,5.70
2014,11,15,12,43,5.80
2014,11,15,12,44,5.80
2014,11,15,12,45,5.80
2014,11,15,12,46,5.80
2014,11,15,12,47,5.80
2014,11,15,12,48,5.80
2014,11,15,12,49,5.80
2014,11,15,12,50,5.80
2014,11,15,12,51,5.80
2014,11,15,12,52,5.80
2014,11,15,12,53,5.80
2014,11,15,12,54,5.80
2014,11,15,12,55,5.80
2014,11,15,12,56,5.90
2014,11,15,12,57,5.90
2014,11,15,12,58,5.90
2014,11,15,12,59,5.90
2014,11,15,13,00,5.90
2014,11,15,13,01,5.90
2014,11,15,13,02,5.90
2014,11,15,13,03,5.90
2014,11,15,13,04,5.90
2014,11,15,13,05,5.80
2014,11,15,13,06,5.80
2014,11,15,13,07,5.90
2014,11,15,13,08,5.90
2014,11,15,13,09,5.90
2014,11,15,13,10,6.00
2014,11,15,13,11,6.00
2014,11,15,13,12,6.00
2014,11,15,13,13,5.90
2014,11,15,13,14,5.90
2014,11,15,13,15,5.90
2014,11,15,13,16,6.00
2014,11,15,13,17,6.10
2014,11,15,13,18,6.10
2014,11,15,13,19,6.20
2014,11,15,13,20,6.20
2014,11,15,13,21,6.20
2014,11,15,13,22,6.10
2014,11,15,13,23,6.10
2014,11,15,13,24,6.10
2014,11,15,13,25,6.20
2014,11,15,13,26,6.20
2014,11,15,13,27,6.30
2014,11,15,13,28,6.30
2014,11,15,13,29,6.30
2014,11,15,13,30,6.30
2014,11,15,13,31,6.30
2014,11,15,13,32,6.30
2014,11,15,13,33,6.30
2014,11,15,13,34,6.30
2014,11,15,13,35,6.30
2014,11,15,13,36,6.30
2014,11,15,13,37,6.20
2014,11,15,13,38,6.20
2014,11,15,13,39,6.10
2014,11,15,13,40,6.10
2014,11,15,13,41,6.10
2014,11,15,13,42,6.10
2014,11,15,13,43,6.00
2014,11,15,13,44,6.10
2014,11,15,13,45,6.10
2014,11,15,13,46,6.10
2014,11,15,13,47,6.10
2014,11,15,13,48,6.10
2014,11,15,13,49,6.10
2014,11,15,13,50,6.20
2014,11,15,13,51,6.20
2014,11,15,13,52,6.30
2014,11,15,13,53,6.30
2014,11,15,13,54,6.30
2014,11,15,13,55,6.30
2014,11,15,13,56,6.30
2014,11,15,13,57,6.30
2014,11,15,13,58,6.30
2014,11,15,13,59,6.30
2014,11,15,14,00,6.30
2014,11,15,14,01,6.30
2014,11,15,14,02,6.40
2014,11,15,14,03,6.50
2014,11,15,14,04,6.60
2014,11,15,14,05,6.60
2014,11,15,14,06,6.60
2014,11,15,14,07,6.70
2014,11,15,14,08,6.70
2014,11,15,14,09,6.80
2014,11,15,14,10,6.80
2014,11,15,14,11,6.80
2014,11,15,14,12,6.80
2014,11,15,14,13,6.70
2014,11,15,14,14,6.60
2014,11,15,14,15,6.50
2014,11,15,14,16,6.50
2014,11,15,14,17,6.40
2014,11,15,14,18,6.30
2014,11,15,14,19,6.30
2014,11,15,14,20,6.30
2014,11,15,14,21,6.30
2014,11,15,14,22,6.30
2014,11,15,14,23,6.20
2014,11,15,14,24,6.20
2014,11,15,14,25,6.20
2014,11,15,14,26,6.20
2014,11,15,14,27,6.20
2014,11,15,14,28,6.20
2014,11,15,14,29,6.30
2014,11,15,14,30,6.30
2014,11,15,14,31,6.30
2014,11,15,14,32,6.30
2014,11,15,14,33,6.20
2014,11,15,14,34,6.20
2014,11,15,14,35,6.10
2014,11,15,14,36,6.10
2014,11,15,14,37,6.10
2014,11,15,14,38,6.10
2014,11,15,14,39,6.00
2014,11,15,14,40,6.00
2014,11,15,14,41,6.00
2014,11,15,14,42,5.90
2014,11,15,14,43,5.90
2014,11,15,14,44,5.90
2014,11,15,14,45,5.90
2014,11,15,14,46,5.90
2014,11,15,14,47,6.00
2014,11,15,14,48,6.00
2014,11,15,14,49,6.00
2014,11,15,14,50,6.00
2014,11,15,14,51,6.10
2014,11,15,14,52,6.10
2014,11,15,14,53,6.10
2014,11,15,14,54,6.10
2014,11,15,14,55,6.10
2014,11,15,14,56,6.10
2014,11,15,14,57,6.20
2014,11,15,14,58,6.20
2014,11,15,14,59,6.20
2014,11,15,15,00,6.30
2014,11,15,15,01,6.30
2014,11,15,15,02,6.20
2014,11,15,15,03,6.20
2014,11,15,15,04,6.20
2014,11,15,15,05,6.10
2014,11,15,15,06,6.10
2014,11,15,15,07,6.10
2014,11,15,15,08,6.00
2014,11,15,15,09,6.00
2014,11,15,15,10,5.90
2014,11,15,15,11,5.90
2014,11,15,15,12,5.90
2014,11,15,15,13,5.90
2014,11,15,15,14,5.90
2014,11,15,15,15,5.90
2014,11,15,15,16,5.90
2014,11,15,15,17,5.90
2014,11,15,15,18,6.00
2014,11,15,15,19,6.00
2014,11,15,15,20,6.00
2014,11,15,15,21,6.00
2014,11,15,15,22,6.00
2014,11,15,15,23,5.90
2014,11,15,15,24,5.90
2014,11,15,15,25,5.80
2014,11,15,15,26,5.80
2014,11,15,15,27,5.80
2014,11,15,15,28,5.70
2014,11,15,15,29,5.70
2014,11,15,15,30,5.60
2014,11,15,15,31,5.60
2014,11,15,15,32,5.50
2014,11,15,15,33,5.50
2014,11,15,15,34,5.40
2014,11,15,15,35,5.40
2014,11,15,15,36,5.40
2014,11,15,15,37,5.40
2014,11,15,15,38,5.40
2014,11,15,15,39,5.40
2014,11,15,15,40,5.40
2014,11,15,15,41,5.30
2014,11,15,15,42,5.30
2014,11,15,15,43,5.30
2014,11,15,15,44,5.30
2014,11,15,15,45,5.20
2014,11,15,15,46,5.20
2014,11,15,15,47,5.10
2014,11,15,15,48,5.10
2014,11,15,15,49,5.00
2014,11,15,15,50,5.00
2014,11,15,15,51,4.90
2014,11,15,15,52,4.90
2014,11,15,15,53,4.80
2014,11,15,15,54,4.80
2014,11,15,15,55,4.70
2014,11,15,15,56,4.70
2014,11,15,15,57,4.60
2014,11,15,15,58,4.60
2014,11,15,15,59,4.50
2014,11,15,16,00,4.50
2014,11,15,16,01,4.40
2014,11,15,16,02,4.40
2014,11,15,16,03,4.30
2014,11,15,16,04,4.20
2014,11,15,16,05,4.20
2014,11,15,16,06,4.10
2014,11,15,16,07,4.00
2014,11,15,16,08,3.90
2014,11,15,16,09,3.90
2014,11,15,16,10,3.80
2014,11,15,16,11,3.70
2014,11,15,16,12,3.70
2014,11,15,16,13,3.70
2014,11,15,16,14,3.60
2014,11,15,16,15,3.60
2014,11,15,16,16,3.60
2014,11,15,16,17,3.50
2014,11,15,16,18,3.50
2014,11,15,16,19,3.40
2014,11,15,16,20,3.40
2014,11,15,16,21,3.30
2014,11,15,16,22,3.20
2014,11,15,16,23,3.10
2014,11,15,16,24,3.10
2014,11,15,16,25,3.00
2014,11,15,16,26,2.80
2014,11,15,16,27,2.80
2014,11,15,16,28,2.70
2014,11,15,16,29,2.60
2014,11,15,16,30,2.50
2014,11,15,16,31,2.40
2014,11,15,16,32,2.30
2014,11,15,16,33,2.30
2014,11,15,16,34,2.20
2014,11,15,16,35,2.10
2014,11,15,16,36,2.10
2014,11,15,16,37,2.00
2014,11,15,16,38,1.90
2014,11,15,16,39,1.90
2014,11,15,16,40,1.80
2014,11,15,16,41,1.80
2014,11,15,16,42,1.80
2014,11,15,16,43,1.80
2014,11,15,16,44,1.70
2014,11,15,16,45,1.70
2014,11,15,16,46,1.70
2014,11,15,16,47,1.60
2014,11,15,16,48,1.60
2014,11,15,16,49,1.50
2014,11,15,16,50,1.50
2014,11,15,16,51,1.40
2014,11,15,16,52,1.30
2014,11,15,16,53,1.30
2014,11,15,16,54,1.30
2014,11,15,16,55,1.30
2014,11,15,16,56,1.30
2014,11,15,16,57,1.30
2014,11,15,16,58,1.20
2014,11,15,16,59,1.20
2014,11,15,17,00,1.10
2014,11,15,17,01,1.10
2014,11,15,17,02,1.10
2014,11,15,17,03,1.00
2014,11,15,17,04,1.00
2014,11,15,17,05,0.90
2014,11,15,17,06,0.90
2014,11,15,17,07,0.80
2014,11,15,17,08,0.80
2014,11,15,17,09,0.80
2014,11,15,17,10,0.70
2014,11,15,17,11,0.70
2014,11,15,17,12,0.60
2014,11,15,17,13,0.60
2014,11,15,17,14,0.50
2014,11,15,17,15,0.50
2014,11,15,17,16,0.40
2014,11,15,17,17,0.40
2014,11,15,17,18,0.30
2014,11,15,17,19,0.20
2014,11,15,17,20,0.20
2014,11,15,17,21,0.10
2014,11,15,17,22,0.10
2014,11,15,17,23,0.10
2014,11,15,17,24,0.00
2014,11,15,17,25,0.00
2014,11,15,17,26,-0.10
2014,11,15,17,27,-0.10
2014,11,15,17,28,-0.10
2014,11,15,17,29,-0.10
2014,11,15,17,30,-0.20
2014,11,15,17,31,-0.20
2014,11,15,17,32,-0.20
2014,11,15,17,33,-0.30
2014,11,15,17,34,-0.30
2014,11,15,17,35,-0.30
2014,11,15,17,36,-0.40
2014,11,15,17,37,-0.40
2014,11,15,17,38,-0.40
2014,11,15,17,39,-0.40
2014,11,15,17,40,-0.50
2014,11,15,17,41,-0.50
2014,11,15,17,42,-0.50
2014,11,15,17,43,-0.50